Farmville, Virginia, United States (23901)
Lat: 37.30N, Lon: 78.39W
Wx Zone: VAZ060
Local Info
Past Weather Observations for Today

NOTE: This archive is for the closest National Weather Service station to Farmville. Information may differ from the station used for current weather conditions.

Click here for Long-term Archive

Time Weather Temperature Dewpoint Humidity Pressure Winds Precip Visibility
22:35
Overcast
66°F / 19°C 66°F / 19°C 100% 30.06 in
(1018 mb)
N 3.5 mph
(N 6 kph)
- 10SM
22:15
Overcast
66°F / 19°C 66°F / 19°C 100% 30.06 in
(1018 mb)
N 3.5 mph
(N 6 kph)
- 10SM
21:55
Overcast
66°F / 19°C 66°F / 19°C 100% 30.06 in
(1018 mb)
N 3.5 mph
(N 6 kph)
- 10SM
21:35
Overcast
68°F / 20°C 66°F / 19°C 94% 30.06 in
(1018 mb)
Calm - 10SM
21:15
Overcast
68°F / 20°C 66°F / 19°C 94% 30.06 in
(1018 mb)
NE 3.5 mph
(NE 6 kph)
- 10SM
20:55
Overcast
66°F / 19°C 66°F / 19°C 100% 30.06 in
(1018 mb)
NNE 4.6 mph
(NNE 7 kph)
- 10SM
20:35
Overcast
Rain
66°F / 19°C 66°F / 19°C 100% 30.04 in
(1017 mb)
N 3.5 mph
(N 6 kph)
- 10SM
20:15
Overcast
66°F / 19°C 66°F / 19°C 100% 30.04 in
(1017 mb)
Calm - 7SM
19:55
Overcast
66°F / 19°C 66°F / 19°C 100% 30.04 in
(1017 mb)
Calm - 10SM
19:35
Overcast
68°F / 20°C 66°F / 19°C 94% 30.04 in
(1017 mb)
N 4.6 mph
(N 7 kph)
- 10SM
19:15
Overcast
66°F / 19°C 64°F / 18°C 94% 30.04 in
(1017 mb)
N 4.6 mph
(N 7 kph)
- 7SM
18:55
Overcast
66°F / 19°C 66°F / 19°C 100% 30.01 in
(1016 mb)
Calm - 10SM
18:35
Overcast
Drizzle
66°F / 19°C 64°F / 18°C 94% 30.01 in
(1016 mb)
Calm 0.01 in
(0.25 mm)
7SM
18:15
Overcast
66°F / 19°C 66°F / 19°C 100% 30.01 in
(1016 mb)
Calm 0.01 in
(0.25 mm)
10SM
17:55
Overcast
Light Rain
66°F / 19°C 66°F / 19°C 100% 30.01 in
(1016 mb)
Calm 0.01 in
(0.25 mm)
7SM
17:35
Overcast
Light Rain
68°F / 20°C 63°F / 17°C 83% 30.01 in
(1016 mb)
Calm - 10SM
17:15
Overcast
Rain
70°F / 21°C 61°F / 16°C 73% 30.01 in
(1016 mb)
Calm - 10SM
16:55
Overcast
Drizzle
70°F / 21°C 61°F / 16°C 73% 29.98 in
(1015 mb)
NE 3.5 mph
(NE 6 kph)
- 10SM
16:35
Overcast
Light Rain
72°F / 22°C 61°F / 16°C 69% 29.98 in
(1015 mb)
Calm - 10SM
16:15
Overcast
72°F / 22°C 61°F / 16°C 69% 29.98 in
(1015 mb)
ENE 3.5 mph
(ENE 6 kph)
- 10SM
15:55
Overcast
73°F / 23°C 61°F / 16°C 65% 29.98 in
(1015 mb)
Calm - 10SM
15:35
Overcast
75°F / 24°C 59°F / 15°C 57% 29.98 in
(1015 mb)
Calm - 10SM
15:15
Overcast
75°F / 24°C 57°F / 14°C 54% 29.98 in
(1015 mb)
Calm - 10SM
14:55
Overcast
75°F / 24°C 57°F / 14°C 54% 29.98 in
(1015 mb)
S 4.6 mph
(S 7 kph)
- 10SM
14:35
Overcast
75°F / 24°C 57°F / 14°C 54% 29.98 in
(1015 mb)
SSE 3.5 mph
(SSE 6 kph)
- 10SM
14:15
Overcast
77°F / 25°C 57°F / 14°C 51% 29.98 in
(1015 mb)
SW 5.8 mph
(SW 9 kph)
- 10SM
13:55
Mostly Cloudy
79°F / 26°C 57°F / 14°C 48% 29.98 in
(1015 mb)
SW 5.8 mph
(SW 9 kph)
- 10SM
13:35
Partly Cloudy
75°F / 24°C 57°F / 14°C 54% 29.98 in
(1015 mb)
SSE 4.6 mph
(SSE 7 kph)
- 10SM
13:15
Mostly Cloudy
75°F / 24°C 57°F / 14°C 54% 30.01 in
(1016 mb)
SW 5.8 mph
(SW 9 kph)
- 10SM
12:55
Overcast
73°F / 23°C 59°F / 15°C 61% 30.01 in
(1016 mb)
Calm - 10SM
12:35
Overcast
Light Rain
73°F / 23°C 57°F / 14°C 57% 30.01 in
(1016 mb)
Calm - 10SM
12:15
Overcast
73°F / 23°C 57°F / 14°C 57% 30.01 in
(1016 mb)
Calm - 10SM
11:55
Overcast
73°F / 23°C 57°F / 14°C 57% 30.01 in
(1016 mb)
SSW 3.5 mph
(SSW 6 kph)
- 10SM
11:35
Mostly Cloudy
73°F / 23°C 57°F / 14°C 57% 30.01 in
(1016 mb)
SW 3.5 mph
(SW 6 kph)
- 10SM
11:15
Mostly Cloudy
75°F / 24°C 57°F / 14°C 54% 30.01 in
(1016 mb)
Calm - 10SM
10:55
Mostly Cloudy
73°F / 23°C 55°F / 13°C 53% 30.01 in
(1016 mb)
SW 5.8 mph
(SW 9 kph)
- 10SM
10:35
Partly Cloudy
75°F / 24°C 55°F / 13°C 50% 30.01 in
(1016 mb)
SW 6.9 mph
(SW 11 kph)
- 10SM
10:15
Mostly Cloudy
73°F / 23°C 55°F / 13°C 53% 30.01 in
(1016 mb)
SW 5.8 mph
(SW 9 kph)
- 10SM
09:55
Partly Cloudy
73°F / 23°C 55°F / 13°C 53% 30.01 in
(1016 mb)
SW 3.5 mph
(SW 6 kph)
- 10SM
09:35
Clear
72°F / 22°C 59°F / 15°C 65% 30.01 in
(1016 mb)
SSE 3.5 mph
(SSE 6 kph)
- 10SM
09:15
Clear
70°F / 21°C 61°F / 16°C 73% 30.01 in
(1016 mb)
Calm - 10SM
08:55
Partly Cloudy
66°F / 19°C 64°F / 18°C 94% 30.01 in
(1016 mb)
Calm - 10SM
08:35
Overcast
64°F / 18°C 64°F / 18°C 100% 30.01 in
(1016 mb)
Calm - 10SM
08:15
Mostly Cloudy
63°F / 17°C 63°F / 17°C 100% 30.01 in
(1016 mb)
Calm - 10SM
07:55
Mostly Cloudy
61°F / 16°C 61°F / 16°C 100% 30.01 in
(1016 mb)
Calm - 10SM
07:35
Overcast
Fog And Mist
57°F / 14°C 57°F / 14°C 100% 30.01 in
(1016 mb)
Calm - 5SM
07:15
Mostly Cloudy
Fog And Mist
57°F / 14°C 57°F / 14°C 100% 30.01 in
(1016 mb)
Calm - 5SM
06:55
Overcast
Fog And Mist
57°F / 14°C 55°F / 13°C 94% 30.01 in
(1016 mb)
Calm - 3/4SM
06:35
Overcast
Fog
54°F / 12°C 54°F / 12°C 100% 30.01 in
(1016 mb)
Calm - 1/2SM
06:15
Overcast
Fog
54°F / 12°C 54°F / 12°C 100% 30.01 in
(1016 mb)
Calm - M1/4SM
05:55
Overcast
Fog And Mist
54°F / 12°C 54°F / 12°C 100% 29.98 in
(1015 mb)
Calm - 1SM
05:35
Overcast
Fog
54°F / 12°C 54°F / 12°C 100% 29.98 in
(1015 mb)
Calm - 1/4SM
05:15
Overcast
Fog
54°F / 12°C 54°F / 12°C 100% 29.98 in
(1015 mb)
Calm - 1/4SM
04:55
Mostly Cloudy
Fog And Mist
54°F / 12°C 54°F / 12°C 100% 29.98 in
(1015 mb)
Calm - 1SM
04:35
Mostly Cloudy
Fog
54°F / 12°C 54°F / 12°C 100% 29.98 in
(1015 mb)
Calm - 1/2SM
04:15
Partly Cloudy
Fog And Mist
54°F / 12°C 54°F / 12°C 100% 29.98 in
(1015 mb)
Calm - 4SM
03:55
Mostly Cloudy
Fog And Mist
55°F / 13°C 54°F / 12°C 94% 29.98 in
(1015 mb)
Calm - 1SM
03:35
Clear
Fog And Mist
55°F / 13°C 55°F / 13°C 100% 29.98 in
(1015 mb)
Calm - 4SM
03:15
Partly Cloudy
Fog And Mist
55°F / 13°C 55°F / 13°C 100% 29.98 in
(1015 mb)
Calm - 5SM
02:55
Mostly Cloudy
Fog And Mist
57°F / 14°C 55°F / 13°C 94% 29.95 in
(1014 mb)
Calm - 5SM
02:35
Overcast
Fog And Mist
57°F / 14°C 55°F / 13°C 94% 29.95 in
(1014 mb)
Calm - 5SM
02:15
Overcast
Fog
55°F / 13°C 54°F / 12°C 94% 29.95 in
(1014 mb)
Calm - 1/2SM
01:55
Clear
Fog And Mist
55°F / 13°C 55°F / 13°C 100% 29.95 in
(1014 mb)
Calm - 3SM
01:35
Clear
Fog And Mist
55°F / 13°C 55°F / 13°C 100% 29.95 in
(1014 mb)
Calm - 5SM
01:15
Partly Cloudy
55°F / 13°C 55°F / 13°C 100% 29.95 in
(1014 mb)
Calm - 7SM
00:55
Overcast
55°F / 13°C 55°F / 13°C 100% 29.98 in
(1015 mb)
Calm - 7SM
00:35
Partly Cloudy
Fog And Mist
55°F / 13°C 54°F / 12°C 94% 29.98 in
(1015 mb)
Calm - 3SM
00:15
Clear
Fog And Mist
57°F / 14°C 55°F / 13°C 94% 29.98 in
(1015 mb)
Calm - 3SM
Time Weather Temperature Dewpoint Humidity Pressure Winds Precip Visibility


Weather for websites

WeatherForYou.com, LLC is not responsible for any damages or problems caused by this service. Current weather conditions are obtained from the closest station including government and personal stations which may have varying degrees of accuracy. Weather forecasts are derived from the NOAA NDFD. Like all things, this site belongs to Jesus Christ... He just trusts me to maintain it. If you have any questions or comments email webmaster@weatherforyou.com

Copyright © 2014, WeatherForYou.com LLC. All rights reserved.